Tracking 19279 objects as of 12-Nov-2018
HD Live streaming from Space Station
objects crossing your sky now

ICESAT-2

Track ICESAT-2 now!
10-day predictions


NORAD ID: 43613
Int'l Code: 2018-070A
Perigee: 486.1 km
Apogee: 490.0 km
Inclination: 92.0 °
Period: 94.2 minutes
Semi major axis: 6859 km
RCS: Unknown
Launch date: September 15, 2018
Source: United States (US)
Launch site: AIR FORCE WESTERN TEST RANGE (AFWTR)
aabbcc
Your satellite tracking list
Your tracking list is empty




NASA's NSSDC Master Catalog

Two Line Element Set (TLE):
1 43613U 18070A   18316.40285616  .00001617  00000-0  58570-4 0  9998
2 43613  92.0013 264.3130 0002853  82.5856 277.5718 15.28281116  8847
Source of the keplerian elements: AFSPC